Regional Weather Roundup
Issued by NWS

Home | Current Version | Previous Version | Graphics & Text | Print | Product List | Glossary On
Versions: 1 2 3 4 5 6 7 8 9 10 11 12 13 14 15 16 17 18 19 20 21 22 23 24 25 26 27 28 29 30 31 32 33 34 35 36 37 38 39 40 41 42 43 44 45 46 47 48 49 50
000
ASUS43 KMPX 290501
RWRMN
WEATHER ROUNDUP FOR MINNESOTA
NATIONAL WEATHER SERVICE TWIN CITIES/CHANHASSEN MN
1200 AM CDT FRI JUL 29 2016


NOTE: "FAIR" INDICATES FEW OR NO CLOUDS BELOW 12,000 FEET WITH NO
SIGNIFICANT WEATHER AND/OR OBSTRUCTIONS TO VISIBILITY. N/A MEANS
CURRENT SKY AND/OR WEATHER CONDITIONS ARE NOT AVAILABLE.

MNZ060>063-068>070-290600-
   Twin Cities Metro

CITY           SKY/WX    TMP DP  RH WIND       PRES   REMARKS
TWIN CITIES    PTCLDY    68  57  68 NE8       30.05R
ST PAUL        MOCLDY    67  58  72 NE8       30.05S
CRYSTAL        MOCLDY    66  55  67 NE6       30.05R
BLAINE         CLEAR     64  57  77 N3        30.06R
LAKEVILLE      CLOUDY    63  63 100 CALM      30.05R
EDEN PRAIRIE   CLEAR     68  58  70 NE7       30.04S
LAKEVILLE      CLOUDY    63  63 100 CALM      30.05R
SOUTH ST PAUL  PTCLDY    67  57  70 NE5       30.05R
LAKE ELMO      FAIR      63  57  82 NE5       30.07R
$$
MNZ001>005-007-008-013>017-022>024-027-028-290600-
   Northwest Minnesota

CITY           SKY/WX    TMP DP  RH WIND       PRES   REMARKS
BEMIDJI        CLEAR     54  52  94 CALM      30.09S
HALLOCK        CLEAR     57  55  94 CALM      30.10S
ROSEAU         CLEAR     57  52  82 CALM      30.11R
WARROAD        CLEAR     57  54  88 CALM      30.11R
THIEF RVR FALL CLEAR     57  55  93 CALM      30.12R
CROOKSTON      CLEAR     59  55  88 N5        30.11S
FOSSTON        CLEAR     54  46  76 CALM      30.11S
DETROIT LAKES  CLEAR     64  59  82 CALM      30.12R
MOORHEAD       CLEAR     61  57  88 CALM      30.10S
PARK RAPIDS    CLEAR     60  56  86 W6        30.10R
MAHNOMEN       FAIR      58  56  94 NW3       30.10S
$$
MNZ006-009>011-018-025>026-290600-
   North Central Minnesota

CITY           SKY/WX    TMP DP  RH WIND       PRES   REMARKS
BAUDETTE       CLEAR     58  54  86 CALM      30.09S
FLAG ISLAND    CLEAR     68  59  73 CALM      30.09R
INTL FALLS     CLEAR     54  52  93 CALM      30.09S
WASKISH        CLEAR     61  55  82 NE5       30.09S
BIG FORK       CLEAR     61  55  82 CALM      30.10S
LONGVILLE      CLEAR     57  55  94 CALM      30.10R
GRAND RAPIDS   CLEAR     56  54  93 CALM      30.12S
CRANE LAKE     PTCLDY    54  52  94 CALM      30.11S
ORR            CLEAR     57  54  88 CALM      30.09R
COOK           CLEAR     55  54  94 CALM      30.11S
WALKER         FAIR      56  54  92 CALM      30.10R
$$
MNZ012-019>021-037-290600-
   Northeast Minnesota

CITY           SKY/WX    TMP DP  RH WIND       PRES   REMARKS
DULUTH         CLEAR     55  51  86 CALM      30.10S
ELY            CLEAR     54  48  82 CALM      30.12S
HIBBING        CLEAR     51  51 100 CALM      30.11S
EVELETH        CLEAR     53  51  95 CALM      30.12S
DULUTH HARBOR  CLEAR     63  57  82 NE9       30.10S
TWO HARBORS    CLEAR     57  52  82 N6        30.08F
SILVER BAY     CLEAR     50  48  93 CALM      30.09F
GRAND MARAIS     N/A     56  51  84 CALM      30.09F
G MARAIS ARPRT CLEAR     48  45  87 N3        30.14S
$$
MNZ029>031-032-039>041-046>048-054>057-064-290600-
   West Central Minnesota

CITY           SKY/WX    TMP DP  RH WIND       PRES   REMARKS
FERGUS FALLS   PTCLDY    66  61  82 SE3       30.10R
WHEATON        CLOUDY    66  64  94 SE7       30.10R
MORRIS         CLOUDY    66  63  88 CALM      30.09R
ALEXANDRIA     CLEAR     63  56  78 SE5       30.12R
ELBOW LAKE     FAIR      62  59  90 S5        30.10R
WADENA         MOCLDY    59  57  94 CALM      30.10R
GLENWOOD       CLEAR     63  57  82 CALM      30.11R
APPLETON       CLOUDY    70  61  73 CALM      30.08S
BENSON         MOCLDY    64  55  72 CALM      30.09S
ORTONVILLE     DRIZZLE   64  61  88 E8        30.10R
MADISON        MOCLDY    64  57  77 CALM      30.09R
WILLMAR        FAIR      61  55  82 NE5       30.10R
$$
MNZ033>034-036-042>043-049>051-058-059-290600-
   Central Minnesota

CITY           SKY/WX    TMP DP  RH WIND       PRES   REMARKS
ST CLOUD       PTCLDY    58  56  93 CALM      30.08S
SAUK CENTRE    FAIR      59  57  94 CALM      30.10S
PAYNESVILLE    CLEAR     56  57 100 CALM      30.10R
AITKIN         MOCLDY    57  54  88 CALM      30.09S
PINE RIVER     CLEAR     59  57  94 CALM      30.14R
BRAINERD       MOCLDY    61  58  90 CALM      30.10R
STAPLES        CLEAR     61  57  88 CALM      30.10S
LONG PRAIRIE   FAIR      57  55  94 CALM      30.11R
LITTLE FALLS   PTCLDY    57  54  88 CALM      30.10R
LITCHFIELD     PTCLDY    64  59  82 CALM      30.09R
BUFFALO        CLEAR     63  57  80 N3        30.08R
MAPLE LAKE     CLEAR     63  58  85 N5        30.09R
HUTCHINSON     CLEAR     65  58  79 N5        30.08S
$$
MNZ037-044-045-052-053-290600-
   East Central Minnesota

CITY           SKY/WX    TMP DP  RH WIND       PRES   REMARKS
PRINCETON        N/A     61  57  88 N3        30.09R
MORA           CLEAR     55  54  94 CALM      30.11R
CAMBRIDGE      CLEAR     61  54  77 CALM      30.06S
RUSH CITY      MOCLDY    58  54  85 NE5       30.08R
MOOSE LAKE     CLEAR     57  55  94 NE3       30.08S
HINCKLEY       FAIR      55  55 100 N3        30.09R
CLOQUET        CLEAR     55  48  76 CALM      30.11R
MCGREGOR       CLOUDY    59  54  82 CALM      30.11R
$$
MNZ071>073-080-081-089-090-097-098-290600-
   Southwest Minnesota

CITY           SKY/WX    TMP DP  RH WIND       PRES   REMARKS
MONTEVIDEO     PTCLDY    63  55  77 CALM      30.10R
GRANITE FALLS  CLEAR     62  58  87 N3        30.09S
CANBY          CLEAR     60  56  89 CALM      30.09F
MARSHALL       CLEAR     58  56  93 CALM      30.08S
REDWOOD FALLS  CLEAR     64  57  78 N5        30.07S
OLIVIA         MOCLDY    59  55  88 N3        30.08R
PIPESTONE      CLEAR     63  55  77 NE3       30.10R
WINDOM         PTCLDY    61  55  82 CALM      30.08R
WORTHINGTON    PTCLDY    64  60  87 N7        30.09R
JACKSON        MOCLDY    64  61  88 VRB3      30.08S
TRACY          CLEAR     61  58  90 CALM      30.09R
SLAYTON        CLEAR     58  56  92 NW5       30.10S
$$
MNZ065>067-074>077-082>085-091>093-290600-
   South Central Minnesota

CITY           SKY/WX    TMP DP  RH WIND       PRES   REMARKS
MANKATO        MOCLDY    66  57  72 CALM      30.05R
NEW ULM        CLEAR     61  57  88 N3        30.06S
ST JAMES       PTCLDY    57  54  88 CALM      30.07R
FAIRMONT       CLOUDY    64  61  88 CALM      30.06R
GLENCOE        PTCLDY    63  61  91 NW5       30.07R
FARIBAULT      CLOUDY    64  63  94 CALM      30.05R
OWATONNA       CLOUDY    64  61  88 NE5       30.05R
WASECA         PTCLDY    59  59 100 N5        30.06R
ALBERT LEA     CLOUDY    64  63  94 NE6       30.04R
$$
MNZ078>079-086>088-094>096-290600-
   Southeast Minnesota

CITY           SKY/WX    TMP DP  RH WIND       PRES   REMARKS
ROCHESTER      CLOUDY    64  60  87 NE9       30.04R
RED WING       CLOUDY    66  61  82 NE3       30.03S
STANTON        CLOUDY    66  63  88 E3        30.03S
DODGE CENTER   CLOUDY   N/A N/A N/A NE8       30.04R
WINONA         CLOUDY    64  59  82 CALM      30.01F
AUSTIN         CLOUDY    64  57  77 NE7       30.02R
PRESTON        CLOUDY    62  59  91 N9        30.02R
$$
ABBREVIATIONS USED IN REMARKS
   TC - TEMPERATURES IN CELSIUS
  WCI - WIND CHILL INDEX
   HX - HEAT INDEX
  VSB - VISIBILITY
$$



USA.gov is the U.S. government's official web portal to all federal, state and local government web resources and services.